Hebron, KY

3:05 PM EDT on July 24, 2016 (GMT -0400)
Cincinnati-Northern KY International

Weather History for KCVG - September, 2013

Change the Weather History Date:

Monday, September 23, 2013

  Actual Average Record
Temperature  
Mean Temperature 60 °F 65 °F  
Max Temperature 70 °F 75 °F 95 °F (2010)
Min Temperature 49 °F 54 °F 34 °F (1983)
Degree Days  
Heating Degree Days 5 3  
Month to date heating degree days 20 28  
Since 1 July heating degree days 24 28  
Cooling Degree Days 0 3  
Month to date cooling degree days 136 122  
Year to date cooling degree days 1112 1090  
Growing Degree Days 9 (Base 50)    
Moisture  
Dew Point 46 °F    
Average Humidity 65    
Maximum Humidity 86    
Minimum Humidity 44    
Precipitation  
Precipitation 0.00 in 0.09 in 1.32 in (2000)
Month to date precipitation 3.56 1.99  
Year to date precipitation 36.61 31.78  
Snow  
Snow 0.00 in 0.00 in - ()
Month to date snowfall 0.0 0.0  
Since 1 July snowfall 0.0 0.0  
Since 1 September snowfall 0.0 0.0  
Snow Depth 0.00 in    
Sea Level Pressure  
Sea Level Pressure 30.06 in    
Wind  
Wind Speed 8 mph (East)    
Max Wind Speed 13 mph    
Max Gust Speed 17 mph    
Visibility 10 miles    
Events      
T = Trace of Precipitation, MM = Missing Value Source: NWS Daily Summary

Daily Weather History Graph

Daily Weather History Graph

Search for Another Location

Airport or City:

Trip Planner

Search our weather history database for the weather conditions in past years. The results will help you decide how hot, cold, wet, or windy it might be!

Date:

Astronomy

Sep. 23, 2013 Rise Set
Actual Time 7:27 AM EDT 7:33 PM EDT
Civil Twilight 7:00 AM EDT 8:00 PM EDT
Nautical Twilight 6:29 AM EDT 8:31 PM EDT
Astronomical Twilight 5:58 AM EDT 9:02 PM EDT
Moon 10:07 PM EDT (9/23) 11:43 AM EDT (9/23)
Length of Visible Light 12h 59m
Length of Day
12h 06m
Waning Gibbous, 81% of the Moon is Illuminated
Sep 23
Waning Gibbous
Sep 26
Last Quarter
Oct 4
New
Oct 11
First Quarter
Oct 18
Full

Hourly Weather History & Observations

Time (EDT) Temp. Dew Point Humidity Pressure Visibility Wind Dir Wind Speed Gust Speed Precip Events Conditions
12:52 AM 53.1 °F 46.0 °F 77% 30.01 in 10.0 mi East 5.8 mph - N/A   Clear
1:52 AM 52.0 °F 45.0 °F 77% 30.02 in 10.0 mi East 3.5 mph - N/A   Clear
2:52 AM 52.0 °F 45.0 °F 77% 30.02 in 10.0 mi East 4.6 mph - N/A   Clear
3:52 AM 52.0 °F 46.0 °F 80% 30.02 in 10.0 mi ENE 6.9 mph - N/A   Clear
4:52 AM 51.1 °F 46.0 °F 83% 30.03 in 10.0 mi East 6.9 mph - N/A   Clear
5:52 AM 50.0 °F 45.0 °F 83% 30.05 in 10.0 mi ESE 3.5 mph - N/A   Clear
6:52 AM 48.9 °F 45.0 °F 86% 30.06 in 10.0 mi East 5.8 mph - N/A   Clear
7:52 AM 50.0 °F 45.0 °F 83% 30.09 in 10.0 mi East 4.6 mph - N/A   Clear
8:52 AM 53.1 °F 46.0 °F 77% 30.09 in 10.0 mi East 10.4 mph - N/A   Clear
9:52 AM 57.0 °F 46.9 °F 69% 30.10 in 10.0 mi East 8.1 mph - N/A   Clear
10:52 AM 60.1 °F 46.0 °F 60% 30.11 in 10.0 mi ESE 8.1 mph - N/A   Clear
11:52 AM 63.0 °F 46.9 °F 56% 30.10 in 10.0 mi ENE 6.9 mph - N/A   Partly Cloudy
12:52 PM 64.9 °F 46.9 °F 52% 30.10 in 10.0 mi Variable 4.6 mph - N/A   Partly Cloudy
1:52 PM 66.0 °F 46.9 °F 50% 30.09 in 10.0 mi ESE 8.1 mph - N/A   Clear
2:52 PM 68.0 °F 46.9 °F 47% 30.07 in 10.0 mi NE 10.4 mph - N/A   Clear
3:52 PM 69.1 °F 46.0 °F 44% 30.05 in 10.0 mi NE 10.4 mph - N/A   Clear
4:52 PM 69.1 °F 46.0 °F 44% 30.04 in 10.0 mi NE 10.4 mph - N/A   Clear
5:52 PM 69.1 °F 46.0 °F 44% 30.04 in 10.0 mi NE 11.5 mph - N/A   Clear
6:52 PM 66.9 °F 46.0 °F 47% 30.04 in 10.0 mi ENE 9.2 mph - N/A   Clear
7:52 PM 62.1 °F 46.9 °F 58% 30.04 in 10.0 mi East 6.9 mph - N/A   Clear
8:52 PM 61.0 °F 48.0 °F 62% 30.05 in 10.0 mi East 5.8 mph - N/A   Clear
9:52 PM 59.0 °F 48.0 °F 67% 30.06 in 10.0 mi East 6.9 mph - N/A   Clear
10:52 PM 57.0 °F 48.9 °F 74% 30.07 in 10.0 mi East 8.1 mph - N/A   Clear
11:52 PM 55.9 °F 48.9 °F 77% 30.07 in 10.0 mi East 8.1 mph - N/A   Clear